DW1347 Weather Reports


Display with metric or nautical units.
time (UTC)temp
F
wind
direction
speed
MPH
gust
MPH
rain 1hr
in
rain 24hr
in
rain mn
in
humidity
%
barometer
mb
20260902105439 47 163 3.0 3.0 0.00 0.00 0.00 85 1029.9
20260902104933 47 226 0.0 0.0 0.00 0.00 0.00 85 1030.3
20260902104429 47 166 2.0 2.0 0.00 0.00 0.00 86 1030.0
20260902103929 48 211 0.0 0.0 0.00 0.00 0.00 84 1030.2
20260902103424 49 232 0.0 0.0 0.00 0.00 0.00 81 1030.0
20260902102919 48 152 2.0 2.0 0.00 0.00 0.00 81 1030.0
20260902102416 49 211 0.0 0.0 0.00 0.00 0.00 81 1030.0
20260902101912 49 206 0.0 0.0 0.00 0.00 0.00 81 1030.0
20260902101406 49 198 0.0 1.0 0.00 0.00 0.00 81 1030.3
20260902100906 49 220 0.0 0.0 0.00 0.00 0.00 80 1030.0
20260902100406 49 207 0.0 0.0 0.00 0.00 0.00 80 1029.8
20260902095900 48 175 1.0 2.0 0.00 0.00 0.00 82 1029.9
20260902095355 49 222 0.0 0.0 0.00 0.00 0.00 81 1030.0
20260902094855 49 190 1.0 1.0 0.00 0.00 0.00 81 1030.0
20260902094351 50 181 2.0 2.0 0.00 0.00 0.00 79 1030.2
20260902093850 51 218 0.0 0.0 0.00 0.00 0.00 79 1030.3
20260902093346 51 209 0.0 0.0 0.00 0.00 0.00 78 1030.2
20260902092844 50 180 2.0 2.0 0.00 0.00 0.00 79 1030.2
20260902092340 50 207 0.0 0.0 0.00 0.00 0.00 79 1030.3
20260902091834 50 187 1.0 1.0 0.00 0.00 0.00 79 1030.0
20260902091330 50 196 0.0 1.0 0.00 0.00 0.00 79 1030.2
20260902090827 50 221 0.0 0.0 0.00 0.00 0.00 78 1030.2
20260902090326 50 211 0.0 0.0 0.00 0.00 0.00 78 1030.3
20260902085825 50 193 0.0 0.0 0.00 0.00 0.00 78 1030.2
20260902085321 50 203 0.0 1.0 0.00 0.00 0.00 78 1030.2
20260902084816 50 172 1.0 2.0 0.00 0.00 0.00 78 1030.3
20260902084313 50 214 0.0 0.0 0.00 0.00 0.00 78 1029.9
20260902083808 51 214 0.0 0.0 0.00 0.00 0.00 77 1030.3
20260902083307 50 213 0.0 0.0 0.00 0.00 0.00 77 1030.2
20260902082802 49 192 0.0 1.0 0.00 0.00 0.00 80 1030.2
20260902082259 50 218 0.0 0.0 0.00 0.00 0.00 79 1030.2
20260902081755 50 218 0.0 0.0 0.00 0.00 0.00 79 1030.2
20260902081250 50 212 0.0 0.0 0.00 0.00 0.00 78 1030.2
20260902080745 50 196 1.0 1.0 0.00 0.00 0.00 79 1030.3
20260902080243 50 201 0.0 1.0 0.00 0.00 0.00 80 1030.4
20260902075741 50 216 0.0 0.0 0.00 0.00 0.00 80 1030.7
20260902075237 50 194 0.0 0.0 0.00 0.00 0.00 80 1030.4
20260902074732 50 214 0.0 0.0 0.00 0.00 0.00 80 1030.4
20260902074228 50 166 2.0 2.0 0.00 0.00 0.00 80 1030.4
20260902073723 50 217 0.0 0.0 0.00 0.00 0.00 79 1030.4
20260902073219 50 204 0.0 0.0 0.00 0.00 0.00 79 1030.5
20260902072715 50 213 0.0 0.0 0.00 0.00 0.00 78 1030.3
20260902072211 51 214 0.0 0.0 0.00 0.00 0.00 78 1030.2
20260902071706 50 198 0.0 0.0 0.00 0.00 0.00 78 1030.4
20260902071201 50 202 0.0 1.0 0.00 0.00 0.00 79 1030.3
20260902070658 50 176 1.0 1.0 0.00 0.00 0.00 78 1030.2
20260902070157 50 193 0.0 1.0 0.00 0.00 0.00 78 1030.3
20260902065655 51 184 1.0 1.0 0.00 0.00 0.00 78 1030.2
20260902065152 51 179 1.0 1.0 0.00 0.00 0.00 78 1030.5
20260902064647 51 209 0.0 0.0 0.00 0.00 0.00 78 1030.5
20260902064142 51 196 0.0 0.0 0.00 0.00 0.00 78 1030.7
20260902063637 50 199 1.0 1.0 0.00 0.00 0.00 78 1030.4
20260902063132 50 190 0.0 0.0 0.00 0.00 0.00 78 1030.5
20260902062631 50 176 0.0 1.0 0.00 0.00 0.00 78 1030.5
20260902062127 51 218 0.0 0.0 0.00 0.00 0.00 77 1030.5
20260902061626 52 213 0.0 0.0 0.00 0.00 0.00 76 1030.5
20260902061122 51 167 2.0 2.0 0.00 0.00 0.00 76 1030.7
20260902060619 51 194 1.0 1.0 0.00 0.00 0.00 77 1030.3
20260902060115 51 218 0.0 0.0 0.00 0.00 0.00 76 1030.4
20260902055610 52 213 0.0 0.0 0.00 0.04 0.04 76 1030.3
20260902055105 52 203 0.0 0.0 0.00 0.04 0.04 75 1030.4
20260902054600 52 213 0.0 0.0 0.00 0.04 0.04 74 1030.4
20260902054056 52 195 0.0 0.0 0.00 0.04 0.04 74 1030.4
20260902053551 53 213 0.0 0.0 0.00 0.04 0.04 74 1030.5
20260902053050 52 153 1.0 1.0 0.00 0.04 0.04 75 1030.2
20260902052545 52 195 0.0 1.0 0.00 0.04 0.04 75 1030.4
20260902052041 52 201 0.0 1.0 0.00 0.04 0.04 77 1030.5
20260902051540 52 209 0.0 0.0 0.00 0.04 0.04 76 1030.4
20260902051039 52 217 0.0 0.0 0.00 0.04 0.04 76 1030.8
20260902050534 53 201 1.0 1.0 0.00 0.04 0.04 74 1030.8
20260902050030 53 206 0.0 0.0 0.00 0.04 0.04 74 1030.4
20260902045525 52 185 1.0 1.0 0.00 0.04 0.04 75 1030.7
20260902045021 53 206 0.0 0.0 0.00 0.04 0.04 75 1030.4
20260902044516 53 189 1.0 1.0 0.00 0.04 0.04 75 1030.5
20260902044012 52 201 1.0 1.0 0.00 0.04 0.04 75 1030.8
20260902043507 53 205 0.0 0.0 0.00 0.04 0.04 75 1030.5
20260902043006 53 201 0.0 0.0 0.00 0.04 0.04 75 1030.5
20260902042501 53 212 0.0 0.0 0.00 0.04 0.04 75 1030.8
20260902041956 53 184 1.0 1.0 0.00 0.04 0.04 74 1030.8
20260902041456 53 214 0.0 0.0 0.00 0.04 0.04 74 1030.8
20260902040951 54 195 1.0 1.0 0.00 0.04 0.04 73 1030.8
20260902040450 54 212 0.0 0.0 0.00 0.04 0.04 73 1030.5
20260902035944 54 204 1.0 1.0 0.00 0.04 0.04 73 1030.7
20260902035439 54 182 1.0 1.0 0.00 0.04 0.04 73 1030.5
20260902034939 54 187 1.0 1.0 0.00 0.04 0.04 74 1030.5
20260902034433 54 187 1.0 1.0 0.00 0.04 0.04 73 1030.4
20260902033933 54 197 1.0 1.0 0.00 0.04 0.04 72 1030.7
20260902033432 55 178 1.0 1.0 0.00 0.04 0.04 72 1030.7
20260902032931 55 204 0.0 1.0 0.00 0.04 0.04 72 1030.8
20260902032426 55 223 1.0 1.0 0.00 0.04 0.04 71 1030.7
20260902031921 55 214 0.0 0.0 0.00 0.04 0.04 71 1030.8
20260902031416 55 213 0.0 0.0 0.00 0.04 0.04 71 1030.7
20260902030912 56 219 0.0 0.0 0.00 0.04 0.04 71 1030.3
20260902030407 56 195 0.0 0.0 0.00 0.04 0.04 70 1030.3
20260902025905 56 192 0.0 1.0 0.00 0.04 0.04 70 1030.4
20260902025356 57 219 0.0 0.0 0.00 0.04 0.04 68 1030.4
20260902024856 57 203 0.0 0.0 0.00 0.04 0.04 68 1030.0
20260902024351 58 206 0.0 0.0 0.00 0.04 0.04 67 1030.3
20260902023846 58 198 1.0 1.0 0.00 0.04 0.04 67 1030.4
20260902023336 58 219 0.0 0.0 0.00 0.04 0.04 66 1029.9
20260902022835 59 198 0.0 0.0 0.00 0.04 0.04 65 1029.9
20260902022331 59 214 0.0 0.0 0.00 0.04 0.04 64 1030.0
20260902021827 60 194 1.0 1.0 0.00 0.04 0.04 65 1029.8
20260902021327 61 222 0.0 0.0 0.00 0.04 0.04 63 1029.8
20260902020823 61 222 0.0 1.0 0.00 0.04 0.04 61 1029.5
20260902020319 61 220 0.0 0.0 0.00 0.04 0.04 61 1029.8
20260902015814 61 212 0.0 1.0 0.00 0.04 0.04 62 1029.7
20260902015310 61 219 0.0 0.0 0.00 0.04 0.04 62 1029.8
20260902014805 62 206 0.0 0.0 0.00 0.04 0.04 61 1029.7
20260902014302 61 195 1.0 1.0 0.00 0.04 0.04 61 1029.7
20260902013800 61 193 1.0 1.0 0.00 0.04 0.04 62 1029.5
20260902013256 61 212 0.0 0.0 0.00 0.04 0.04 62 1029.7
20260902012751 62 219 0.0 0.0 0.00 0.04 0.04 62 1029.4
20260902012247 62 212 0.0 0.0 0.00 0.04 0.04 62 1029.5
20260902011743 63 214 0.0 0.0 0.00 0.04 0.04 60 1029.7
20260902011242 64 224 0.0 0.0 0.00 0.04 0.04 60 1029.8
20260902010741 65 222 0.0 0.0 0.00 0.04 0.04 59 1029.5
20260902010237 66 217 0.0 0.0 0.00 0.04 0.04 57 1029.5
20260902005736 67 219 0.0 0.0 0.00 0.04 0.04 56 1029.4
20260902005232 68 219 0.0 0.0 0.00 0.04 0.04 55 1029.5
20260902004731 69 221 0.0 0.0 0.00 0.04 0.04 51 1029.7
20260902004226 70 220 0.0 0.0 0.00 0.04 0.04 47 1029.3
20260902003721 69 207 0.0 1.0 0.00 0.04 0.04 48 1029.3
20260902003217 69 203 0.0 0.0 0.00 0.04 0.04 49 1029.3
20260902002713 69 214 0.0 0.0 0.00 0.04 0.04 48 1029.4
20260902002212 69 214 0.0 0.0 0.00 0.04 0.04 47 1029.3
20260902001708 70 209 0.0 1.0 0.00 0.04 0.04 47 1029.3
20260902001207 71 222 0.0 0.0 0.00 0.04 0.04 45 1029.4
20260902000703 71 6 2.0 2.0 0.00 0.04 0.04 45 1029.3
20260902000158 72 226 2.0 2.0 0.00 0.04 0.04 46 1029.4
20260901235657 72 291 2.0 2.0 0.00 0.04 0.04 44 1029.3
20260901235152 72 214 0.0 0.0 0.00 0.04 0.04 46 1029.3
20260901234651 72 216 0.0 0.0 0.00 0.04 0.04 45 1029.1
20260901234147 72 145 3.0 3.0 0.00 0.04 0.04 45 1029.5
20260901233641 73 305 1.0 2.0 0.00 0.04 0.04 44 1029.0
20260901233137 73 233 2.0 3.0 0.00 0.04 0.04 43 1029.3
20260901232632 74 240 3.0 3.0 0.00 0.04 0.04 44 1029.1
20260901232127 75 257 4.0 5.0 0.00 0.04 0.04 42 1029.1
20260901231624 74 249 2.0 2.0 0.00 0.04 0.04 43 1029.3
20260901231120 72 238 0.0 0.0 0.00 0.04 0.04 43 1029.3
20260901230616 72 183 0.0 0.0 0.00 0.04 0.04 43 1029.4
20260901230115 72 229 2.0 2.0 0.00 0.04 0.04 43 1029.3
20260901225610 72 225 2.0 2.0 0.00 0.04 0.04 43 1029.3
20260901225110 73 221 1.0 1.0 0.00 0.04 0.04 43 1029.3
20260901224607 73 172 2.0 2.0 0.00 0.04 0.04 40 1029.0
20260901224103 73 347 0.0 0.0 0.00 0.04 0.04 42 1029.1
20260901223557 75 223 1.0 2.0 0.00 0.04 0.04 43 1029.3
20260901223053 77 136 2.0 3.0 0.00 0.04 0.04 40 1029.3
20260901222549 75 212 1.0 1.0 0.00 0.04 0.04 42 1029.4
20260901222045 76 45 3.0 3.0 0.00 0.04 0.04 41 1029.3
20260901221541 74 28 1.0 2.0 0.00 0.04 0.04 41 1029.5
20260901221036 72 250 2.0 2.0 0.00 0.04 0.04 42 1029.5
20260901220535 71 223 1.0 1.0 0.00 0.04 0.04 44 1029.7
20260901220034 71 18 2.0 3.0 0.00 0.04 0.04 44 1029.5
20260901215533 72 347 5.0 6.0 0.00 0.04 0.04 43 1029.8
20260901215032 72 157 1.0 2.0 0.00 0.04 0.04 44 1029.5
20260901214531 71 2 3.0 3.0 0.00 0.04 0.04 44 1029.8
20260901214026 72 240 1.0 1.0 0.00 0.04 0.04 43 1029.5
20260901213520 73 23 7.0 8.0 0.00 0.04 0.04 43 1029.7
20260901213020 72 28 5.0 6.0 0.00 0.04 0.04 44 1029.8
20260901212514 72 29 3.0 3.0 0.00 0.04 0.04 44 1029.8
20260901212011 72 359 3.0 3.0 0.00 0.04 0.04 43 1029.8
20260901211506 73 48 3.0 5.0 0.00 0.04 0.04 43 1029.4
20260901211002 74 214 1.0 2.0 0.00 0.04 0.04 43 1029.7
20260901210457 72 192 3.0 5.0 0.00 0.04 0.04 45 1029.8
20260901205953 73 339 5.0 6.0 0.00 0.04 0.04 44 1029.5
20260901205449 73 320 3.0 3.0 0.00 0.04 0.04 44 1029.7
20260901204943 73 247 3.0 3.0 0.00 0.04 0.04 44 1029.7
20260901204440 74 302 4.0 6.0 0.00 0.04 0.04 43 1029.5
20260901203939 73 241 2.0 3.0 0.00 0.04 0.04 42 1029.7
20260901203434 74 58 6.0 7.0 0.00 0.04 0.04 42 1029.5
20260901202929 73 344 2.0 2.0 0.00 0.04 0.04 43 1029.8
20260901202430 73 11 3.0 5.0 0.00 0.04 0.04 43 1029.7
20260901201926 73 4 4.0 6.0 0.00 0.04 0.04 43 1029.7
20260901201426 73 153 0.0 1.0 0.00 0.04 0.04 43 1030.0
20260901200920 73 245 1.0 2.0 0.00 0.04 0.04 40 1029.9
20260901200415 72 74 3.0 6.0 0.00 0.04 0.04 40 1029.8
20260901195914 73 32 1.0 2.0 0.00 0.04 0.04 42 1029.7
20260901195413 73 171 2.0 3.0 0.00 0.04 0.04 43 1030.0
20260901194908 72 190 0.0 1.0 0.00 0.04 0.04 43 1029.8
20260901194402 73 287 5.0 7.0 0.00 0.04 0.04 43 1030.0
20260901193858 74 331 2.0 2.0 0.00 0.04 0.04 37 1029.9
20260901193352 73 216 1.0 1.0 0.00 0.04 0.04 36 1029.9
20260901192852 73 52 0.0 1.0 0.00 0.04 0.04 39 1029.9
20260901192348 73 215 3.0 3.0 0.00 0.04 0.04 36 1030.2
20260901191844 73 220 1.0 2.0 0.00 0.04 0.04 39 1029.9
20260901191339 73 317 3.0 3.0 0.00 0.04 0.04 39 1029.9
20260901190835 73 190 1.0 1.0 0.00 0.04 0.04 39 1030.2
20260901190335 73 276 4.0 5.0 0.00 0.04 0.04 39 1030.2
20260901185833 73 130 3.0 5.0 0.00 0.04 0.04 38 1030.2
20260901185332 73 221 0.0 1.0 0.00 0.04 0.04 40 1030.0
20260901184828 76 264 3.0 3.0 0.00 0.04 0.04 37 1030.3
20260901184323 74 228 0.0 0.0 0.00 0.04 0.04 36 1030.5
20260901183819 72 210 5.0 6.0 0.00 0.04 0.04 38 1030.3
20260901183318 73 250 1.0 2.0 0.00 0.04 0.04 36 1030.5
20260901182815 73 272 6.0 7.0 0.00 0.04 0.04 39 1030.7
20260901182314 74 184 2.0 3.0 0.00 0.04 0.04 37 1030.8
20260901181809 74 103 0.0 0.0 0.00 0.04 0.04 36 1030.3
20260901181303 75 163 4.0 6.0 0.00 0.04 0.04 36 1030.4
20260901180757 74 203 1.0 2.0 0.00 0.04 0.04 38 1030.8
20260901180256 74 214 2.0 2.0 0.00 0.04 0.04 42 1030.8
20260901175755 73 236 1.0 2.0 0.00 0.04 0.04 38 1030.7
20260901175250 72 225 1.0 2.0 0.00 0.04 0.04 41 1030.9
20260901174745 71 191 1.0 1.0 0.00 0.04 0.04 41 1030.9
20260901174241 72 180 2.0 3.0 0.00 0.04 0.04 42 1031.0
20260901173737 69 93 3.0 5.0 0.00 0.04 0.04 41 1031.2
20260901173231 70 213 1.0 1.0 0.00 0.04 0.04 41 1031.2
20260901172728 71 248 1.0 2.0 0.00 0.04 0.04 42 1030.9
20260901172226 70 177 0.0 0.0 0.00 0.04 0.04 42 1031.2
20260901171725 69 210 2.0 3.0 0.00 0.04 0.04 47 1031.2
20260901171224 69 211 1.0 2.0 0.00 0.04 0.04 45 1031.2
20260901170723 69 227 3.0 3.0 0.00 0.04 0.04 47 1031.3
20260901170218 69 179 1.0 2.0 0.00 0.04 0.04 43 1031.0
20260901165717 70 213 0.0 1.0 0.00 0.04 0.04 49 1031.3
20260901165212 71 141 1.0 1.0 0.00 0.04 0.04 45 1031.0
20260901164708 71 208 0.0 0.0 0.00 0.04 0.04 44 1031.3
20260901164203 71 216 2.0 2.0 0.00 0.04 0.04 45 1031.3
20260901163658 70 216 2.0 3.0 0.00 0.04 0.04 45 1031.5
20260901163157 70 227 3.0 3.0 0.00 0.04 0.04 45 1031.0
20260901162653 70 191 5.0 7.0 0.00 0.04 0.04 44 1031.3
20260901162152 69 178 4.0 6.0 0.00 0.04 0.04 46 1031.0
20260901161651 68 200 1.0 2.0 0.00 0.04 0.04 50 1031.2
20260901161151 69 153 3.0 5.0 0.00 0.04 0.04 44 1031.4
20260901160648 69 186 3.0 3.0 0.00 0.04 0.04 45 1031.5
20260901160142 68 210 2.0 3.0 0.00 0.04 0.04 47 1031.2
20260901155641 67 165 2.0 2.0 0.00 0.04 0.04 49 1031.3
20260901155137 67 117 2.0 5.0 0.00 0.04 0.04 50 1031.2
20260901154632 68 108 6.0 7.0 0.00 0.04 0.04 45 1031.3
20260901154126 67 147 1.0 2.0 0.00 0.04 0.04 53 1031.5
20260901153622 67 214 0.0 1.0 0.00 0.04 0.04 48 1031.5
20260901153121 65 196 0.0 1.0 0.00 0.04 0.04 54 1031.3
20260901152617 64 152 2.0 2.0 0.00 0.04 0.04 55 1031.5
20260901152115 63 121 4.0 6.0 0.00 0.04 0.04 52 1031.5
20260901151611 62 171 3.0 3.0 0.00 0.04 0.04 59 1031.5
20260901151110 59 216 1.0 2.0 0.00 0.04 0.04 66 1031.4
20260901150609 57 237 0.0 0.0 0.00 0.04 0.04 82 1031.4
20260901150108 54 169 1.0 1.0 0.00 0.04 0.04 92 1031.2
20260901145601 54 203 0.0 1.0 0.00 0.04 0.04 96 1031.4
20260901145100 54 211 0.0 0.0 0.00 0.04 0.04 97 1031.4
20260901144556 53 239 1.0 1.0 0.00 0.04 0.04 97 1031.2
20260901144050 53 204 0.0 0.0 0.00 0.04 0.04 98 1031.7
20260901143541 52 237 0.0 0.0 0.00 0.04 0.04 99 1031.4
20260901143037 52 233 1.0 1.0 0.00 0.04 0.04 99 1031.4
20260901142531 51 216 0.0 0.0 0.00 0.04 0.04 99 1031.2
20260901142026 51 165 1.0 1.0 0.00 0.04 0.04 99 1031.2
20260901141526 51 210 0.0 0.0 0.00 0.04 0.04 99 1031.2
20260901141022 51 224 0.0 0.0 0.00 0.04 0.04 99 1031.3
20260901140520 51 189 1.0 1.0 0.00 0.04 0.04 99 1031.3
20260901140015 51 220 1.0 2.0 0.00 0.04 0.04 99 1031.3
20260901135514 51 207 0.0 0.0 0.00 0.04 0.04 99 1031.4
20260901135010 51 248 0.0 0.0 0.00 0.04 0.04 99 1031.0
20260901134506 50 208 0.0 0.0 0.00 0.04 0.04 99 1031.0
20260901134000 50 240 0.0 0.0 0.00 0.04 0.04 99 1031.3
20260901133459 50 197 1.0 1.0 0.00 0.04 0.04 99 1030.8
20260901132957 50 219 0.0 0.0 0.00 0.04 0.04 99 1030.9
20260901132452 50 219 0.0 0.0 0.00 0.04 0.04 99 1031.0
20260901131951 50 199 0.0 0.0 0.00 0.04 0.04 99 1030.8
20260901131450 50 197 0.0 0.0 0.00 0.04 0.04 99 1030.7
20260901130946 50 216 0.0 0.0 0.00 0.04 0.04 99 1030.5
20260901130441 50 208 0.0 0.0 0.00 0.04 0.04 99 1030.4
20260901125938 50 217 0.0 0.0 0.00 0.04 0.04 99 1030.7
20260901125439 49 215 0.0 0.0 0.00 0.04 0.04 99 1030.5
20260901124933 49 201 0.0 0.0 0.00 0.04 0.04 99 1030.3
20260901124428 49 201 0.0 0.0 0.00 0.04 0.04 99 1030.3
20260901123923 50 184 0.0 0.0 0.00 0.04 0.04 99 1029.8
20260901123418 50 217 0.0 0.0 0.00 0.04 0.04 99 1030.0
20260901122916 50 216 0.0 0.0 0.00 0.04 0.04 99 1030.0
20260901122411 49 188 0.0 0.0 0.00 0.04 0.04 99 1029.9
20260901121910 49 218 0.0 0.0 0.00 0.04 0.04 99 1030.2
20260901121405 50 224 0.0 0.0 0.00 0.04 0.04 99 1029.9
20260901120901 49 216 0.0 0.0 0.00 0.04 0.04 99 1029.7
20260901120400 49 221 0.0 0.0 0.00 0.04 0.04 99 1029.7
20260901115856 49 218 0.0 0.0 0.00 0.04 0.04 99 1029.9
20260901115356 49 188 0.0 0.0 0.00 0.04 0.04 99 1029.8
20260901114854 49 180 0.0 0.0 0.00 0.04 0.04 99 1029.9
20260901114349 49 221 0.0 0.0 0.00 0.04 0.04 99 1029.9
20260901113847 49 161 0.0 0.0 0.00 0.04 0.04 99 1030.2
20260901113346 50 235 0.0 0.0 0.00 0.04 0.04 99 1030.2
20260901112841 50 176 0.0 0.0 0.00 0.04 0.04 99 1029.8
20260901112336 49 205 0.0 0.0 0.00 0.04 0.04 99 1030.2
20260901111831 50 223 0.0 0.0 0.00 0.04 0.04 99 1029.9
20260901111329 49 218 0.0 0.0 0.00 0.04 0.04 99 1030.0
20260901110828 49 203 0.0 0.0 0.00 0.04 0.04 99 1030.2
20260901110324 49 219 0.0 0.0 0.00 0.04 0.04 99 1029.9
20260901105820 50 223 0.0 0.0 0.00 0.04 0.04 99 1029.9